Frederick, OK

1:30 PM CDT on April 22, 2018 (GMT -0500)
Frederick Municipal

Weather History for KFDR - April, 2014

Change the Weather History Date:

Monday, April 14, 2014

  Actual Average (KLTS) Record (KLTS)
Temperature  
Mean Temperature 46 °F -  
Max Temperature 55 °F 72 °F 93 °F (1998)
Min Temperature 37 °F 47 °F 31 °F (2008)
Degree Days  
Heating Degree Days 19    
Moisture  
Dew Point 25 °F    
Average Humidity 50    
Maximum Humidity 68    
Minimum Humidity 23    
Precipitation  
Precipitation 0.00 in - - ()
Sea Level Pressure  
Sea Level Pressure 30.10 in    
Wind  
Wind Speed 24 mph (North)    
Max Wind Speed 31 mph    
Max Gust Speed 39 mph    
Visibility 10 miles    
Events      
Averages and records for this station are not official NWS values.
T = Trace of Precipitation, MM = Missing Value Source: NWS Daily Summary

Daily Weather History Graph

Daily Weather History Graph

Search for Another Location

Airport or City:

Astronomy

Apr. 14, 2014 Rise Set
Actual Time 7:05 AM CDT 8:06 PM CDT
Civil Twilight 6:40 AM CDT 8:32 PM CDT
Nautical Twilight 6:09 AM CDT 9:03 PM CDT
Astronomical Twilight 5:37 AM CDT 9:35 PM CDT
Moon 7:47 PM CDT (4/14) 6:37 AM CDT (4/14)
Length of Visible Light 13h 52m
Length of Day
13h 01m
Full, 100% of the Moon is Illuminated
Apr 14
Full
Apr 15
Full
Apr 22
Last Quarter
Apr 29
New
May 6
First Quarter

Hourly Weather History & Observations

Time (CDT) Temp. Windchill Dew Point Humidity Pressure Visibility Wind Dir Wind Speed Gust Speed Precip Events Conditions
12:37 AM 44.6 °F 35.1 °F 32.0 °F 61% 29.87 in 10.0 mi North 27.6 mph 39.1 mph N/A   Mostly Cloudy
12:53 AM 44.1 °F 35.0 °F 32.0 °F 63% 29.85 in 10.0 mi North 24.2 mph 35.7 mph N/A   Mostly Cloudy
1:23 AM 42.8 °F 32.9 °F 30.2 °F 61% 29.90 in 10.0 mi North 26.5 mph 33.4 mph N/A   Mostly Cloudy
1:53 AM 43.0 °F 33.8 °F 30.0 °F 60% 29.87 in 10.0 mi North 23.0 mph 28.8 mph N/A   Overcast
2:37 AM 42.8 °F 33.5 °F 30.2 °F 61% 29.94 in 10.0 mi North 23.0 mph 33.4 mph N/A   Overcast
2:53 AM 43.0 °F 33.8 °F 32.0 °F 65% 29.90 in 10.0 mi North 23.0 mph 29.9 mph N/A   Overcast
4:53 AM 42.1 °F 32.8 °F 30.0 °F 62% 29.95 in 10.0 mi North 21.9 mph 35.7 mph N/A   Overcast
5:17 AM 42.8 °F 33.3 °F 28.4 °F 57% 29.99 in 10.0 mi North 24.2 mph 32.2 mph N/A   Overcast
5:53 AM 42.1 °F 32.3 °F 28.9 °F 60% 29.99 in 10.0 mi North 24.2 mph 32.2 mph N/A   Overcast
6:36 AM 39.2 °F 28.5 °F 28.4 °F 65% 30.03 in 10.0 mi North 24.2 mph 33.4 mph N/A   Overcast
7:42 AM 39.2 °F 29.0 °F 28.4 °F 65% 30.08 in 10.0 mi North 21.9 mph 28.8 mph N/A   Overcast
7:53 AM 39.9 °F 29.2 °F 28.0 °F 63% 30.09 in 10.0 mi North 25.3 mph 33.4 mph N/A   Overcast
8:14 AM 39.2 °F 27.6 °F 28.4 °F 65% 30.11 in 10.0 mi North 28.8 mph 33.4 mph N/A   Overcast
8:53 AM 39.9 °F 28.2 °F 28.9 °F 65% 30.14 in 10.0 mi North 31.1 mph 38.0 mph N/A   Overcast
9:34 AM 39.2 °F 28.5 °F 28.4 °F 65% 30.16 in 10.0 mi North 24.2 mph 38.0 mph N/A   Overcast
9:53 AM 39.9 °F 28.6 °F 30.0 °F 68% 30.18 in 10.0 mi North 28.8 mph 36.8 mph N/A   Overcast
10:18 AM 39.2 °F 28.3 °F 28.4 °F 65% 30.19 in 10.0 mi North 25.3 mph 36.8 mph N/A   Overcast
10:53 AM 41.0 °F 30.5 °F 28.9 °F 62% 30.21 in 10.0 mi North 26.5 mph 38.0 mph N/A   Overcast
11:50 AM 44.6 °F 35.1 °F 26.6 °F 49% 30.21 in 10.0 mi North 27.6 mph 39.1 mph N/A   Mostly Cloudy
11:53 AM 44.1 °F 34.4 °F 26.1 °F 49% 30.22 in 10.0 mi North 27.6 mph 36.8 mph N/A   Mostly Cloudy
1:53 PM 51.1 °F - 25.0 °F 36% 30.18 in 10.0 mi North 23.0 mph 33.4 mph N/A   Scattered Clouds
2:53 PM 54.0 °F - 19.0 °F 25% 30.17 in 10.0 mi North 21.9 mph 34.5 mph N/A   Clear
3:53 PM 55.0 °F - 21.9 °F 28% 30.17 in 10.0 mi North 29.9 mph 38.0 mph N/A   Clear
4:53 PM 55.0 °F - 19.9 °F 25% 30.16 in 10.0 mi NNW 27.6 mph 34.5 mph N/A   Clear
5:53 PM 53.1 °F - 16.0 °F 23% 30.17 in 10.0 mi North 19.6 mph 34.5 mph N/A   Clear
6:53 PM 52.0 °F - 15.1 °F 23% 30.19 in 10.0 mi North 20.7 mph 31.1 mph N/A   Clear
7:53 PM 48.9 °F - 16.0 °F 27% 30.20 in 10.0 mi North 17.3 mph 24.2 mph N/A   Clear
8:53 PM 45.0 °F 40.1 °F 16.0 °F 31% 30.23 in 10.0 mi North 9.2 mph - N/A   Clear
9:53 PM 42.1 °F 36.1 °F 15.1 °F 34% 30.27 in 10.0 mi North 10.4 mph - N/A   Clear
10:53 PM 37.9 °F 32.7 °F 15.1 °F 39% 30.29 in 10.0 mi NNW 6.9 mph - N/A   Clear
11:53 PM 37.0 °F 31.0 °F 16.0 °F 42% 30.29 in 10.0 mi NW 8.1 mph - N/A   Clear